Simultaneous Nadir Overpasses (SNOs) Predictions

Prediction of SNOs between AQUA and GOES-15 Satellite Orbit:

Table of predicted SNOs for the next 14.0 days since TLE Epoch: 3/12/2016
Index Date Time (AQUA) AQUA Lat,Lon GOES-15 Lat,Lon Distance(km) Time Diff (sec)
1 03/13/2016 22:23:16 0.59,-131.94 0.00,-134.66 309.45 80
2 03/14/2016 10:44:32 0.49,-137.10 0.00,-134.66 277.02 80
3 03/16/2016 10:32:21 -0.08,-134.14 0.00,-134.57 49.31 80
4 03/18/2016 10:20:11 -0.72,-131.19 0.00,-134.48 375.36 80
5 03/18/2016 22:41:35 -0.42,-136.37 -0.01,-134.44 219.67 80
6 03/20/2016 22:29:24 0.18,-133.41 -0.01,-134.35 106.19 80
7 03/21/2016 10:50:39 0.89,-138.57 0.01,-134.34 480.71 80
8 03/22/2016 22:17:13 0.80,-130.45 -0.00,-134.25 431.81 80
9 03/23/2016 10:38:28 0.28,-135.61 0.01,-134.24 155.18 80
10 03/25/2016 10:26:16 -0.29,-132.64 0.00,-134.14 170.01 80
11 03/25/2016 22:47:40 -0.82,-137.83 -0.01,-134.10 425.02 80




NCC Satellite Simultaneous Nadir Overpasses (SNOs) Prediction Service
